Вернуться в каталог

NOAA 16 DEB

АктивенSSO
NORAD 41287·DEBRIS·🇺🇸 United States

Запущен Sep 21, 2000 с Vandenberg Space Force Base

Loading…

Ближайшие Пролёты (ближайшие 24 часа)

TLE

СвежийSource: Space-Track

Эпоха: Sep 12, 2026, 10:31 UTC

1 41287U 00055GP  26255.43835735  .00003335  00000-0  13170-2 0  9998
2 41287  98.8648 331.2486 0025912 337.8184  22.1874 14.29556504551744

Отслеживайте NOAA 16 DEB в реальном времени с AllMySat

Download on the App Store